#datetime,building,power
2022-11-27T00:00:00,pkn,1.20
2022-11-27T00:01:00,pkn,9.60
2022-11-27T00:03:00,pkn,9.60
2022-11-27T00:05:00,pkn,8.40
2022-11-27T00:06:00,pkn,1.20
2022-11-27T00:08:00,pkn,1.20
2022-11-27T00:10:00,pkn,1.20
2022-11-27T00:11:00,pkn,1.20
2022-11-27T00:13:00,pkn,1.20
2022-11-27T00:14:00,pkn,1.20
2022-11-27T00:16:00,pkn,1.20
2022-11-27T00:17:00,pkn,1.20
2022-11-27T00:20:00,pkn,1.20
2022-11-27T00:22:00,pkn,2.40
2022-11-27T00:24:00,pkn,1.20
2022-11-27T00:26:00,pkn,1.20
2022-11-27T00:29:00,pkn,2.40
2022-11-27T00:30:00,pkn,1.20
2022-11-27T00:33:00,pkn,1.20
2022-11-27T00:34:00,pkn,1.20
2022-11-27T00:36:00,pkn,1.20
2022-11-27T00:38:00,pkn,1.20
2022-11-27T00:39:00,pkn,1.20
2022-11-27T00:40:00,pkn,1.20
2022-11-27T00:43:00,pkn,7.20
2022-11-27T00:45:00,pkn,9.60
2022-11-27T00:46:00,pkn,4.80
2022-11-27T00:48:00,pkn,9.60
2022-11-27T00:50:00,pkn,8.40
2022-11-27T00:52:00,pkn,2.40
2022-11-27T00:54:00,pkn,1.20
2022-11-27T00:55:00,pkn,1.20
2022-11-27T00:57:00,pkn,1.20
2022-11-27T00:59:00,pkn,2.40
2022-11-27T01:01:00,pkn,1.20
2022-11-27T01:02:00,pkn,1.20
2022-11-27T01:04:00,pkn,1.20
2022-11-27T01:06:00,pkn,1.20
2022-11-27T01:07:00,pkn,1.20
2022-11-27T01:08:00,pkn,1.20
2022-11-27T01:10:00,pkn,1.20
2022-11-27T01:11:00,pkn,1.20
2022-11-27T01:13:00,pkn,2.40
2022-11-27T01:16:00,pkn,2.40
2022-11-27T01:18:00,pkn,1.20
2022-11-27T01:21:00,pkn,2.40
2022-11-27T01:23:00,pkn,1.20
2022-11-27T01:25:00,pkn,2.40
2022-11-27T01:27:00,pkn,1.20
2022-11-27T01:29:00,pkn,1.20
2022-11-27T01:32:00,pkn,2.40
2022-11-27T01:34:00,pkn,1.20
2022-11-27T01:36:00,pkn,1.20
2022-11-27T01:38:00,pkn,1.20
2022-11-27T01:40:00,pkn,2.40
2022-11-27T01:42:00,pkn,1.20
2022-11-27T01:43:00,pkn,1.20
2022-11-27T01:45:00,pkn,1.20
2022-11-27T01:46:00,pkn,1.20
2022-11-27T01:48:00,pkn,1.20
2022-11-27T01:50:00,pkn,1.20
2022-11-27T01:52:00,pkn,2.40
2022-11-27T01:54:00,pkn,1.20
2022-11-27T01:56:00,pkn,1.20
2022-11-27T01:58:00,pkn,1.20
2022-11-27T02:00:00,pkn,1.20
2022-11-27T02:02:00,pkn,7.20
2022-11-27T02:04:00,pkn,9.60
2022-11-27T02:06:00,pkn,9.60
2022-11-27T02:08:00,pkn,8.40
2022-11-27T02:09:00,pkn,1.20
2022-11-27T02:12:00,pkn,2.40
2022-11-27T02:15:00,pkn,1.20
2022-11-27T02:16:00,pkn,1.20
2022-11-27T02:18:00,pkn,1.20
2022-11-27T02:19:00,pkn,1.20
2022-11-27T02:22:00,pkn,6.00
2022-11-27T02:24:00,pkn,4.80
2022-11-27T02:25:00,pkn,1.20
2022-11-27T02:26:00,pkn,1.20
2022-11-27T02:28:00,pkn,1.20
2022-11-27T02:30:00,pkn,1.20
2022-11-27T02:32:00,pkn,1.20
2022-11-27T02:34:00,pkn,1.20
2022-11-27T02:36:00,pkn,1.20
2022-11-27T02:38:00,pkn,1.20
2022-11-27T02:40:00,pkn,2.40
2022-11-27T02:41:00,pkn,1.20
2022-11-27T02:43:00,pkn,1.20
2022-11-27T02:46:00,pkn,2.40
2022-11-27T02:49:00,pkn,2.40
2022-11-27T02:51:00,pkn,1.20
2022-11-27T02:52:00,pkn,1.20
2022-11-27T02:54:00,pkn,1.20
2022-11-27T02:55:00,pkn,1.20
2022-11-27T02:57:00,pkn,1.20
2022-11-27T02:59:00,pkn,2.40
2022-11-27T03:02:00,pkn,2.40
2022-11-27T03:05:00,pkn,2.40
2022-11-27T03:06:00,pkn,1.20
2022-11-27T03:08:00,pkn,1.20
2022-11-27T03:09:00,pkn,1.20
2022-11-27T03:11:00,pkn,1.20
2022-11-27T03:12:00,pkn,3.60
2022-11-27T03:14:00,pkn,9.60
2022-11-27T03:15:00,pkn,4.80
2022-11-27T03:17:00,pkn,10.80
2022-11-27T03:19:00,pkn,7.20
2022-11-27T03:21:00,pkn,1.20
2022-11-27T03:23:00,pkn,1.20
2022-11-27T03:25:00,pkn,1.20
2022-11-27T03:26:00,pkn,1.20
2022-11-27T03:28:00,pkn,1.20
2022-11-27T03:30:00,pkn,1.20
2022-11-27T03:32:00,pkn,2.40
2022-11-27T03:35:00,pkn,1.20
2022-11-27T03:36:00,pkn,1.20
2022-11-27T03:37:00,pkn,1.20
2022-11-27T03:39:00,pkn,1.20
2022-11-27T03:40:00,pkn,1.20
2022-11-27T03:42:00,pkn,1.20
2022-11-27T03:44:00,pkn,1.20
2022-11-27T03:46:00,pkn,1.20
2022-11-27T03:48:00,pkn,1.20
2022-11-27T03:49:00,pkn,1.20
2022-11-27T03:51:00,pkn,1.20
2022-11-27T03:53:00,pkn,1.20
2022-11-27T03:54:00,pkn,1.20
2022-11-27T03:56:00,pkn,1.20
2022-11-27T03:57:00,pkn,1.20
2022-11-27T03:59:00,pkn,1.20
2022-11-27T04:00:00,pkn,1.20
2022-11-27T04:02:00,pkn,1.20
2022-11-27T04:04:00,pkn,1.20
2022-11-27T04:05:00,pkn,1.20
2022-11-27T04:07:00,pkn,1.20
2022-11-27T04:08:00,pkn,1.20
2022-11-27T04:10:00,pkn,1.20
2022-11-27T04:12:00,pkn,1.20
2022-11-27T04:14:00,pkn,1.20
2022-11-27T04:15:00,pkn,1.20
2022-11-27T04:17:00,pkn,1.20
2022-11-27T04:18:00,pkn,1.20
2022-11-27T04:20:00,pkn,1.20
2022-11-27T04:22:00,pkn,1.20
2022-11-27T04:23:00,pkn,1.20
2022-11-27T04:25:00,pkn,1.20
2022-11-27T04:26:00,pkn,1.20
2022-11-27T04:28:00,pkn,1.20
2022-11-27T04:30:00,pkn,1.20
2022-11-27T04:31:00,pkn,1.20
2022-11-27T04:33:00,pkn,1.20
2022-11-27T04:35:00,pkn,1.20
2022-11-27T04:37:00,pkn,1.20
2022-11-27T04:39:00,pkn,1.20
2022-11-27T04:41:00,pkn,1.20
2022-11-27T04:42:00,pkn,1.20
2022-11-27T04:44:00,pkn,1.20
2022-11-27T04:45:00,pkn,1.20
2022-11-27T04:47:00,pkn,1.20
2022-11-27T04:50:00,pkn,7.20
2022-11-27T04:52:00,pkn,10.80
2022-11-27T04:54:00,pkn,9.60
2022-11-27T04:55:00,pkn,3.60
2022-11-27T04:56:00,pkn,4.80
2022-11-27T04:58:00,pkn,1.20
2022-11-27T04:59:00,pkn,1.20
2022-11-27T05:01:00,pkn,1.20
2022-11-27T05:03:00,pkn,2.40
2022-11-27T05:04:00,pkn,1.20
2022-11-27T05:06:00,pkn,1.20
2022-11-27T05:09:00,pkn,2.40
2022-11-27T05:11:00,pkn,1.20
2022-11-27T05:13:00,pkn,1.20
2022-11-27T05:14:00,pkn,1.20
2022-11-27T05:16:00,pkn,1.20
2022-11-27T05:17:00,pkn,1.20
2022-11-27T05:19:00,pkn,1.20
2022-11-27T05:20:00,pkn,1.20
2022-11-27T05:22:00,pkn,1.20
2022-11-27T05:24:00,pkn,1.20
2022-11-27T05:26:00,pkn,1.20
2022-11-27T05:28:00,pkn,2.40
2022-11-27T05:31:00,pkn,1.20
2022-11-27T05:32:00,pkn,1.20
2022-11-27T05:33:00,pkn,1.20
2022-11-27T05:36:00,pkn,1.20
2022-11-27T05:38:00,pkn,1.20
2022-11-27T05:39:00,pkn,1.20
2022-11-27T05:41:00,pkn,1.20
2022-11-27T05:43:00,pkn,1.20
2022-11-27T05:45:00,pkn,2.40
2022-11-27T05:47:00,pkn,1.20
2022-11-27T05:49:00,pkn,1.20
2022-11-27T05:50:00,pkn,1.20
2022-11-27T05:51:00,pkn,1.20
2022-11-27T05:53:00,pkn,1.20
2022-11-27T05:56:00,pkn,1.20
2022-11-27T05:57:00,pkn,1.20
2022-11-27T05:59:00,pkn,1.20
2022-11-27T06:00:00,pkn,1.20
2022-11-27T06:03:00,pkn,2.40
2022-11-27T06:05:00,pkn,1.20
2022-11-27T06:08:00,pkn,1.20
2022-11-27T06:10:00,pkn,2.40
2022-11-27T06:12:00,pkn,1.20
2022-11-27T06:13:00,pkn,1.20
2022-11-27T06:15:00,pkn,1.20
2022-11-27T06:17:00,pkn,1.20
2022-11-27T06:19:00,pkn,1.20
2022-11-27T06:20:00,pkn,1.20
2022-11-27T06:22:00,pkn,2.40
2022-11-27T06:24:00,pkn,1.20
2022-11-27T06:27:00,pkn,1.20
2022-11-27T06:28:00,pkn,1.20
2022-11-27T06:30:00,pkn,1.20
2022-11-27T06:32:00,pkn,1.20
2022-11-27T06:33:00,pkn,1.20
2022-11-27T06:35:00,pkn,1.20
2022-11-27T06:37:00,pkn,1.20
2022-11-27T06:40:00,pkn,2.40
2022-11-27T06:43:00,pkn,1.20
2022-11-27T06:45:00,pkn,1.20
2022-11-27T06:47:00,pkn,2.40
2022-11-27T06:49:00,pkn,1.20
2022-11-27T06:51:00,pkn,1.20
2022-11-27T06:52:00,pkn,1.20
2022-11-27T06:55:00,pkn,2.40
2022-11-27T06:58:00,pkn,2.40
2022-11-27T07:00:00,pkn,1.20
2022-11-27T07:02:00,pkn,1.20
2022-11-27T07:04:00,pkn,1.20
2022-11-27T07:05:00,pkn,1.20
2022-11-27T07:07:00,pkn,1.20
2022-11-27T07:08:00,pkn,1.20
2022-11-27T07:10:00,pkn,1.20
2022-11-27T07:11:00,pkn,1.20
2022-11-27T07:13:00,pkn,1.20
2022-11-27T07:15:00,pkn,2.40
2022-11-27T07:17:00,pkn,1.20
2022-11-27T07:19:00,pkn,7.20
2022-11-27T07:21:00,pkn,8.40
2022-11-27T07:22:00,pkn,6.00
2022-11-27T07:23:00,pkn,3.60
2022-11-27T07:25:00,pkn,9.60
2022-11-27T07:27:00,pkn,1.20
2022-11-27T07:28:00,pkn,1.20
2022-11-27T07:31:00,pkn,1.20
2022-11-27T07:32:00,pkn,1.20
2022-11-27T07:34:00,pkn,1.20
2022-11-27T07:36:00,pkn,2.40
2022-11-27T07:38:00,pkn,1.20
2022-11-27T07:41:00,pkn,1.20
2022-11-27T07:42:00,pkn,1.20
2022-11-27T07:44:00,pkn,1.20
2022-11-27T07:46:00,pkn,2.40
2022-11-27T07:48:00,pkn,1.20
2022-11-27T07:50:00,pkn,1.20
2022-11-27T07:52:00,pkn,1.20
2022-11-27T07:53:00,pkn,1.20
2022-11-27T07:55:00,pkn,1.20
2022-11-27T07:56:00,pkn,1.20
2022-11-27T07:58:00,pkn,1.20
2022-11-27T08:00:00,pkn,1.20
2022-11-27T08:01:00,pkn,1.20
2022-11-27T08:03:00,pkn,1.20
2022-11-27T08:07:00,pkn,1.20
2022-11-27T08:10:00,pkn,1.20
2022-11-27T08:12:00,pkn,1.20
2022-11-27T08:15:00,pkn,1.20
2022-11-27T08:17:00,pkn,1.20
2022-11-27T08:18:00,pkn,1.20
2022-11-27T08:22:00,pkn,2.40
2022-11-27T08:23:00,pkn,1.20
2022-11-27T08:24:00,pkn,1.20
2022-11-27T08:26:00,pkn,1.20
2022-11-27T08:28:00,pkn,2.40
2022-11-27T08:29:00,pkn,2.40
2022-11-27T08:30:00,pkn,1.20
2022-11-27T08:32:00,pkn,2.40
2022-11-27T08:34:00,pkn,3.60
2022-11-27T08:35:00,pkn,1.20
2022-11-27T08:37:00,pkn,2.40
2022-11-27T08:38:00,pkn,1.20
2022-11-27T08:40:00,pkn,1.20
2022-11-27T08:42:00,pkn,1.20
2022-11-27T08:45:00,pkn,1.20
2022-11-27T08:47:00,pkn,1.20
2022-11-27T08:48:00,pkn,1.20
2022-11-27T08:50:00,pkn,1.20
2022-11-27T08:52:00,pkn,1.20
2022-11-27T08:56:00,pkn,2.40
2022-11-27T08:59:00,pkn,1.20
2022-11-27T09:03:00,pkn,1.20
2022-11-27T09:04:00,pkn,1.20
2022-11-27T09:05:00,pkn,1.20
2022-11-27T09:08:00,pkn,1.20
2022-11-27T09:10:00,pkn,4.80
2022-11-27T09:12:00,pkn,7.20
2022-11-27T09:14:00,pkn,9.60
2022-11-27T09:16:00,pkn,9.60
2022-11-27T09:17:00,pkn,2.40
2022-11-27T09:18:00,pkn,1.20
2022-11-27T09:20:00,pkn,1.20
2022-11-27T09:22:00,pkn,1.20
2022-11-27T09:24:00,pkn,1.20
2022-11-27T09:28:00,pkn,1.20
2022-11-27T09:30:00,pkn,1.20
2022-11-27T09:33:00,pkn,1.20
2022-11-27T09:34:00,pkn,1.20
2022-11-27T09:37:00,pkn,1.20
2022-11-27T09:40:00,pkn,1.20
2022-11-27T09:43:00,pkn,1.20
2022-11-27T09:45:00,pkn,1.20
2022-11-27T09:47:00,pkn,1.20
2022-11-27T09:50:00,pkn,1.20
2022-11-27T09:52:00,pkn,1.20
2022-11-27T09:54:00,pkn,1.20
2022-11-27T09:56:00,pkn,1.20
2022-11-27T09:57:00,pkn,1.20
2022-11-27T09:59:00,pkn,1.20
2022-11-27T10:02:00,pkn,1.20
2022-11-27T10:05:00,pkn,1.20
2022-11-27T10:06:00,pkn,1.20
2022-11-27T10:10:00,pkn,1.20
2022-11-27T10:14:00,pkn,1.20
2022-11-27T10:16:00,pkn,1.20
2022-11-27T10:17:00,pkn,1.20
2022-11-27T10:21:00,pkn,1.20
2022-11-27T10:23:00,pkn,1.20
2022-11-27T10:26:00,pkn,1.20
2022-11-27T10:29:00,pkn,1.20
2022-11-27T10:31:00,pkn,1.20
2022-11-27T10:35:00,pkn,1.20
2022-11-27T10:37:00,pkn,1.20
2022-11-27T10:41:00,pkn,1.20
2022-11-27T10:43:00,pkn,1.20
2022-11-27T10:45:00,pkn,1.20
2022-11-27T10:48:00,pkn,1.20
2022-11-27T10:49:00,pkn,1.20
2022-11-27T10:53:00,pkn,1.20
2022-11-27T10:55:00,pkn,1.20
2022-11-27T10:56:00,pkn,1.20
2022-11-27T10:58:00,pkn,1.20
2022-11-27T11:00:00,pkn,1.20
2022-11-27T11:03:00,pkn,1.20
2022-11-27T11:05:00,pkn,1.20
2022-11-27T11:09:00,pkn,1.20
2022-11-27T11:10:00,pkn,1.20
2022-11-27T11:12:00,pkn,1.20
2022-11-27T11:16:00,pkn,1.20
2022-11-27T11:18:00,pkn,1.20
2022-11-27T11:21:00,pkn,1.20
2022-11-27T11:23:00,pkn,1.20
2022-11-27T11:24:00,pkn,1.20
2022-11-27T11:27:00,pkn,1.20
2022-11-27T11:29:00,pkn,4.80
2022-11-27T11:30:00,pkn,4.80
2022-11-27T11:32:00,pkn,8.40
2022-11-27T11:33:00,pkn,4.80
2022-11-27T11:35:00,pkn,9.60
2022-11-27T11:39:00,pkn,1.20
2022-11-27T11:41:00,pkn,1.20
2022-11-27T11:43:00,pkn,1.20
2022-11-27T11:49:00,pkn,1.20
2022-11-27T11:50:00,pkn,1.20
2022-11-27T11:52:00,pkn,1.20
2022-11-27T11:54:00,pkn,2.40
2022-11-27T11:56:00,pkn,3.60
2022-11-27T11:58:00,pkn,3.60
2022-11-27T11:59:00,pkn,2.40
2022-11-27T12:01:00,pkn,3.60
2022-11-27T12:02:00,pkn,1.20
2022-11-27T12:04:00,pkn,3.60
2022-11-27T12:05:00,pkn,2.40
2022-11-27T12:06:00,pkn,1.20
2022-11-27T12:08:00,pkn,3.60
2022-11-27T12:10:00,pkn,2.40
2022-11-27T12:11:00,pkn,1.20
2022-11-27T12:13:00,pkn,1.20
2022-11-27T12:14:00,pkn,1.20
2022-11-27T12:17:00,pkn,1.20
2022-11-27T12:20:00,pkn,1.20
2022-11-27T12:22:00,pkn,1.20
2022-11-27T12:24:00,pkn,2.40
2022-11-27T12:25:00,pkn,1.20
2022-11-27T12:27:00,pkn,3.60
2022-11-27T12:28:00,pkn,1.20
2022-11-27T12:30:00,pkn,3.60
2022-11-27T12:31:00,pkn,1.20
2022-11-27T12:33:00,pkn,1.20
2022-11-27T12:35:00,pkn,1.20
2022-11-27T12:39:00,pkn,1.20
2022-11-27T12:41:00,pkn,1.20
2022-11-27T12:44:00,pkn,1.20
2022-11-27T12:48:00,pkn,1.20
2022-11-27T12:51:00,pkn,1.20
2022-11-27T12:54:00,pkn,1.20
2022-11-27T12:56:00,pkn,1.20
2022-11-27T12:58:00,pkn,1.20
2022-11-27T13:00:00,pkn,1.20
2022-11-27T13:02:00,pkn,1.20
2022-11-27T13:05:00,pkn,1.20
2022-11-27T13:07:00,pkn,1.20
2022-11-27T13:10:00,pkn,1.20
2022-11-27T13:12:00,pkn,4.80
2022-11-27T13:13:00,pkn,4.80
2022-11-27T13:14:00,pkn,4.80
2022-11-27T13:15:00,pkn,4.80
2022-11-27T13:17:00,pkn,9.60
2022-11-27T13:18:00,pkn,3.60
2022-11-27T13:21:00,pkn,1.20
2022-11-27T13:23:00,pkn,1.20
2022-11-27T13:25:00,pkn,1.20
2022-11-27T13:27:00,pkn,1.20
2022-11-27T13:29:00,pkn,1.20
2022-11-27T13:33:00,pkn,1.20
2022-11-27T13:36:00,pkn,1.20
2022-11-27T13:38:00,pkn,1.20
2022-11-27T13:40:00,pkn,1.20
2022-11-27T13:43:00,pkn,1.20
2022-11-27T13:45:00,pkn,1.20
2022-11-27T13:48:00,pkn,1.20
2022-11-27T13:50:00,pkn,1.20
2022-11-27T13:53:00,pkn,1.20
2022-11-27T13:55:00,pkn,1.20
2022-11-27T13:57:00,pkn,1.20
2022-11-27T14:01:00,pkn,1.20
2022-11-27T14:05:00,pkn,1.20
2022-11-27T14:07:00,pkn,1.20
2022-11-27T14:10:00,pkn,1.20
2022-11-27T14:13:00,pkn,1.20
2022-11-27T14:16:00,pkn,1.20
2022-11-27T14:18:00,pkn,1.20
2022-11-27T14:21:00,pkn,1.20
2022-11-27T14:23:00,pkn,2.40
2022-11-27T14:25:00,pkn,2.40
2022-11-27T14:26:00,pkn,1.20
2022-11-27T14:27:00,pkn,1.20
2022-11-27T14:28:00,pkn,2.40
2022-11-27T14:30:00,pkn,2.40
2022-11-27T14:32:00,pkn,2.40
2022-11-27T14:34:00,pkn,3.60
2022-11-27T14:35:00,pkn,2.40
2022-11-27T14:37:00,pkn,1.20
2022-11-27T14:39:00,pkn,1.20
2022-11-27T14:41:00,pkn,1.20
2022-11-27T14:44:00,pkn,1.20
2022-11-27T14:46:00,pkn,2.40
2022-11-27T14:48:00,pkn,1.20
2022-11-27T14:49:00,pkn,1.20
2022-11-27T14:51:00,pkn,1.20
2022-11-27T14:52:00,pkn,1.20
2022-11-27T14:53:00,pkn,1.20
2022-11-27T14:55:00,pkn,2.40
2022-11-27T14:57:00,pkn,1.20
2022-11-27T15:00:00,pkn,1.20
2022-11-27T15:02:00,pkn,1.20
2022-11-27T15:04:00,pkn,1.20
2022-11-27T15:06:00,pkn,3.60
2022-11-27T15:07:00,pkn,3.60
2022-11-27T15:09:00,pkn,9.60
2022-11-27T15:11:00,pkn,9.60
2022-11-27T15:13:00,pkn,7.20
2022-11-27T15:16:00,pkn,1.20
2022-11-27T15:18:00,pkn,1.20
2022-11-27T15:19:00,pkn,1.20
2022-11-27T15:21:00,pkn,1.20
2022-11-27T15:25:00,pkn,1.20
2022-11-27T15:27:00,pkn,1.20
2022-11-27T15:29:00,pkn,1.20
2022-11-27T15:32:00,pkn,1.20
2022-11-27T15:34:00,pkn,1.20
2022-11-27T15:36:00,pkn,1.20
2022-11-27T15:38:00,pkn,1.20
2022-11-27T15:41:00,pkn,1.20
2022-11-27T15:43:00,pkn,1.20
2022-11-27T15:45:00,pkn,1.20
2022-11-27T15:47:00,pkn,1.20
2022-11-27T15:49:00,pkn,2.40
2022-11-27T15:51:00,pkn,1.20
2022-11-27T15:53:00,pkn,1.20
2022-11-27T15:54:00,pkn,1.20
2022-11-27T15:56:00,pkn,1.20
2022-11-27T15:59:00,pkn,2.40
2022-11-27T16:01:00,pkn,1.20
2022-11-27T16:03:00,pkn,1.20
2022-11-27T16:05:00,pkn,1.20
2022-11-27T16:06:00,pkn,1.20
2022-11-27T16:08:00,pkn,1.20
2022-11-27T16:10:00,pkn,2.40
2022-11-27T16:12:00,pkn,1.20
2022-11-27T16:14:00,pkn,1.20
2022-11-27T16:16:00,pkn,2.40
2022-11-27T16:19:00,pkn,1.20
2022-11-27T16:21:00,pkn,2.40
2022-11-27T16:23:00,pkn,1.20
2022-11-27T16:25:00,pkn,1.20
2022-11-27T16:26:00,pkn,1.20
2022-11-27T16:28:00,pkn,2.40
2022-11-27T16:31:00,pkn,2.40
2022-11-27T16:34:00,pkn,2.40
2022-11-27T16:35:00,pkn,1.20
2022-11-27T16:36:00,pkn,1.20
2022-11-27T16:38:00,pkn,2.40
2022-11-27T16:40:00,pkn,2.40
2022-11-27T16:42:00,pkn,1.20
2022-11-27T16:44:00,pkn,2.40
2022-11-27T16:46:00,pkn,2.40
2022-11-27T16:48:00,pkn,1.20
2022-11-27T16:50:00,pkn,2.40
2022-11-27T16:51:00,pkn,1.20
2022-11-27T16:53:00,pkn,1.20
2022-11-27T16:55:00,pkn,2.40
2022-11-27T16:56:00,pkn,1.20
2022-11-27T16:58:00,pkn,1.20
2022-11-27T16:59:00,pkn,1.20
2022-11-27T17:00:00,pkn,1.20
2022-11-27T17:02:00,pkn,2.40
2022-11-27T17:05:00,pkn,2.40
2022-11-27T17:08:00,pkn,2.40
2022-11-27T17:10:00,pkn,3.60
2022-11-27T17:12:00,pkn,9.60
2022-11-27T17:13:00,pkn,4.80
2022-11-27T17:14:00,pkn,6.00
2022-11-27T17:16:00,pkn,8.40
2022-11-27T17:18:00,pkn,9.60
2022-11-27T17:19:00,pkn,4.80
2022-11-27T17:21:00,pkn,8.40
2022-11-27T17:22:00,pkn,1.20
2022-11-27T17:24:00,pkn,1.20
2022-11-27T17:26:00,pkn,2.40
2022-11-27T17:28:00,pkn,1.20
2022-11-27T17:30:00,pkn,1.20
2022-11-27T17:31:00,pkn,1.20
2022-11-27T17:33:00,pkn,1.20
2022-11-27T17:34:00,pkn,1.20
2022-11-27T17:36:00,pkn,1.20
2022-11-27T17:38:00,pkn,2.40
2022-11-27T17:41:00,pkn,2.40
2022-11-27T17:43:00,pkn,1.20
2022-11-27T17:45:00,pkn,2.40
2022-11-27T17:47:00,pkn,1.20
2022-11-27T17:49:00,pkn,9.60
2022-11-27T17:51:00,pkn,9.60
2022-11-27T17:53:00,pkn,9.60
2022-11-27T17:54:00,pkn,4.80
2022-11-27T17:56:00,pkn,10.80
2022-11-27T17:57:00,pkn,3.60
2022-11-27T17:59:00,pkn,4.80
2022-11-27T18:01:00,pkn,1.20
2022-11-27T18:03:00,pkn,2.40
2022-11-27T18:05:00,pkn,2.40
2022-11-27T18:06:00,pkn,1.20
2022-11-27T18:07:00,pkn,1.20
2022-11-27T18:09:00,pkn,2.40
2022-11-27T18:10:00,pkn,1.20
2022-11-27T18:12:00,pkn,2.40
2022-11-27T18:14:00,pkn,2.40
2022-11-27T18:16:00,pkn,1.20
2022-11-27T18:17:00,pkn,1.20
2022-11-27T18:19:00,pkn,4.80
2022-11-27T18:21:00,pkn,4.80
2022-11-27T18:22:00,pkn,2.40
2022-11-27T18:24:00,pkn,3.60
2022-11-27T18:26:00,pkn,4.80
2022-11-27T18:28:00,pkn,3.60
2022-11-27T18:29:00,pkn,2.40
2022-11-27T18:31:00,pkn,2.40
2022-11-27T18:33:00,pkn,1.20
2022-11-27T18:34:00,pkn,1.20
2022-11-27T18:35:00,pkn,3.60
2022-11-27T18:36:00,pkn,4.80
2022-11-27T18:37:00,pkn,4.80
2022-11-27T18:38:00,pkn,4.80
2022-11-27T18:40:00,pkn,9.60
2022-11-27T18:42:00,pkn,10.80
2022-11-27T18:44:00,pkn,1.20
2022-11-27T18:46:00,pkn,1.20
2022-11-27T18:47:00,pkn,1.20
2022-11-27T18:49:00,pkn,1.20
2022-11-27T18:51:00,pkn,2.40
2022-11-27T18:52:00,pkn,1.20
2022-11-27T18:54:00,pkn,1.20
2022-11-27T18:56:00,pkn,1.20
2022-11-27T18:58:00,pkn,1.20
2022-11-27T18:59:00,pkn,1.20
2022-11-27T19:01:00,pkn,1.20
2022-11-27T19:03:00,pkn,2.40
2022-11-27T19:05:00,pkn,1.20
2022-11-27T19:07:00,pkn,2.40
2022-11-27T19:10:00,pkn,2.40
2022-11-27T19:11:00,pkn,1.20
2022-11-27T19:13:00,pkn,1.20
2022-11-27T19:14:00,pkn,1.20
2022-11-27T19:16:00,pkn,1.20
2022-11-27T19:17:00,pkn,1.20
2022-11-27T19:19:00,pkn,1.20
2022-11-27T19:21:00,pkn,2.40
2022-11-27T19:23:00,pkn,1.20
2022-11-27T19:24:00,pkn,1.20
2022-11-27T19:25:00,pkn,1.20
2022-11-27T19:27:00,pkn,1.20
2022-11-27T19:28:00,pkn,1.20
2022-11-27T19:30:00,pkn,2.40
2022-11-27T19:32:00,pkn,2.40
2022-11-27T19:33:00,pkn,3.60
2022-11-27T19:35:00,pkn,10.80
2022-11-27T19:36:00,pkn,4.80
2022-11-27T19:38:00,pkn,9.60
2022-11-27T19:40:00,pkn,7.20
2022-11-27T19:41:00,pkn,1.20
2022-11-27T19:43:00,pkn,1.20
2022-11-27T19:44:00,pkn,1.20
2022-11-27T19:46:00,pkn,2.40
2022-11-27T19:48:00,pkn,2.40
2022-11-27T19:49:00,pkn,1.20
2022-11-27T19:51:00,pkn,2.40
2022-11-27T19:52:00,pkn,1.20
2022-11-27T19:53:00,pkn,1.20
2022-11-27T19:55:00,pkn,1.20
2022-11-27T19:57:00,pkn,2.40
2022-11-27T19:58:00,pkn,1.20
2022-11-27T20:00:00,pkn,1.20
2022-11-27T20:02:00,pkn,2.40
2022-11-27T20:05:00,pkn,2.40
2022-11-27T20:06:00,pkn,1.20
2022-11-27T20:09:00,pkn,2.40
2022-11-27T20:10:00,pkn,1.20
2022-11-27T20:12:00,pkn,1.20
2022-11-27T20:14:00,pkn,2.40
2022-11-27T20:16:00,pkn,2.40
2022-11-27T20:18:00,pkn,1.20
2022-11-27T20:20:00,pkn,2.40
2022-11-27T20:22:00,pkn,1.20
2022-11-27T20:23:00,pkn,1.20
2022-11-27T20:26:00,pkn,2.40
2022-11-27T20:27:00,pkn,1.20
2022-11-27T20:29:00,pkn,1.20
2022-11-27T20:31:00,pkn,10.80
2022-11-27T20:33:00,pkn,9.60
2022-11-27T20:35:00,pkn,10.80
2022-11-27T20:37:00,pkn,9.60
2022-11-27T20:39:00,pkn,9.60
2022-11-27T20:41:00,pkn,10.80
2022-11-27T20:42:00,pkn,3.60
2022-11-27T20:44:00,pkn,3.60
2022-11-27T20:45:00,pkn,1.20
2022-11-27T20:47:00,pkn,1.20
2022-11-27T20:49:00,pkn,2.40
2022-11-27T20:51:00,pkn,2.40
2022-11-27T20:53:00,pkn,2.40
2022-11-27T20:54:00,pkn,1.20
2022-11-27T20:56:00,pkn,3.60
2022-11-27T20:58:00,pkn,3.60
2022-11-27T20:59:00,pkn,1.20
2022-11-27T21:00:00,pkn,1.20
2022-11-27T21:01:00,pkn,1.20
2022-11-27T21:03:00,pkn,1.20
2022-11-27T21:04:00,pkn,1.20
2022-11-27T21:06:00,pkn,1.20
2022-11-27T21:07:00,pkn,1.20
2022-11-27T21:09:00,pkn,3.60
2022-11-27T21:11:00,pkn,10.80
2022-11-27T21:12:00,pkn,4.80
2022-11-27T21:14:00,pkn,10.80
2022-11-27T21:15:00,pkn,4.80
2022-11-27T21:17:00,pkn,9.60
2022-11-27T21:18:00,pkn,4.80
2022-11-27T21:20:00,pkn,2.40
2022-11-27T21:21:00,pkn,1.20
2022-11-27T21:23:00,pkn,1.20
2022-11-27T21:25:00,pkn,2.40
2022-11-27T21:27:00,pkn,2.40
2022-11-27T21:29:00,pkn,1.20
2022-11-27T21:30:00,pkn,1.20
2022-11-27T21:32:00,pkn,2.40
2022-11-27T21:34:00,pkn,2.40
2022-11-27T21:36:00,pkn,1.20
2022-11-27T21:38:00,pkn,2.40
2022-11-27T21:40:00,pkn,2.40
2022-11-27T21:41:00,pkn,1.20
2022-11-27T21:42:00,pkn,1.20
2022-11-27T21:44:00,pkn,2.40
2022-11-27T21:46:00,pkn,1.20
2022-11-27T21:47:00,pkn,4.80
2022-11-27T21:49:00,pkn,10.80
2022-11-27T21:51:00,pkn,9.60
2022-11-27T21:53:00,pkn,10.80
2022-11-27T21:55:00,pkn,8.40
2022-11-27T21:57:00,pkn,2.40
2022-11-27T21:58:00,pkn,1.20
2022-11-27T22:01:00,pkn,2.40
2022-11-27T22:02:00,pkn,1.20
2022-11-27T22:05:00,pkn,2.40
2022-11-27T22:07:00,pkn,2.40
2022-11-27T22:09:00,pkn,2.40
2022-11-27T22:11:00,pkn,2.40
2022-11-27T22:13:00,pkn,1.20
2022-11-27T22:14:00,pkn,1.20
2022-11-27T22:16:00,pkn,2.40
2022-11-27T22:17:00,pkn,1.20
2022-11-27T22:19:00,pkn,2.40
2022-11-27T22:21:00,pkn,2.40
2022-11-27T22:24:00,pkn,2.40
2022-11-27T22:26:00,pkn,1.20
2022-11-27T22:28:00,pkn,2.40
2022-11-27T22:30:00,pkn,2.40
2022-11-27T22:32:00,pkn,1.20
2022-11-27T22:33:00,pkn,2.40
2022-11-27T22:34:00,pkn,4.80
2022-11-27T22:36:00,pkn,10.80
2022-11-27T22:38:00,pkn,10.80
2022-11-27T22:40:00,pkn,9.60
2022-11-27T22:41:00,pkn,4.80
2022-11-27T22:43:00,pkn,3.60
2022-11-27T22:44:00,pkn,1.20
2022-11-27T22:46:00,pkn,1.20
2022-11-27T22:48:00,pkn,2.40
2022-11-27T22:49:00,pkn,1.20
2022-11-27T22:51:00,pkn,1.20
2022-11-27T22:53:00,pkn,2.40
2022-11-27T22:55:00,pkn,2.40
2022-11-27T22:57:00,pkn,2.40
2022-11-27T22:59:00,pkn,1.20
2022-11-27T23:01:00,pkn,2.40
2022-11-27T23:03:00,pkn,2.40
2022-11-27T23:05:00,pkn,2.40
2022-11-27T23:07:00,pkn,1.20
2022-11-27T23:09:00,pkn,3.60
2022-11-27T23:10:00,pkn,1.20
2022-11-27T23:11:00,pkn,1.20
2022-11-27T23:13:00,pkn,1.20
2022-11-27T23:14:00,pkn,1.20
2022-11-27T23:16:00,pkn,2.40
2022-11-27T23:17:00,pkn,1.20
2022-11-27T23:19:00,pkn,1.20
2022-11-27T23:21:00,pkn,2.40
2022-11-27T23:22:00,pkn,1.20
2022-11-27T23:23:00,pkn,1.20
2022-11-27T23:25:00,pkn,1.20
2022-11-27T23:27:00,pkn,2.40
2022-11-27T23:28:00,pkn,1.20
2022-11-27T23:30:00,pkn,1.20
2022-11-27T23:32:00,pkn,2.40
2022-11-27T23:34:00,pkn,2.40
2022-11-27T23:36:00,pkn,4.80
2022-11-27T23:37:00,pkn,3.60
2022-11-27T23:38:00,pkn,4.80
2022-11-27T23:39:00,pkn,7.20
2022-11-27T23:40:00,pkn,1.20
2022-11-27T23:41:00,pkn,8.40
2022-11-27T23:42:00,pkn,1.20
2022-11-27T23:43:00,pkn,9.60
2022-11-27T23:45:00,pkn,8.40
2022-11-27T23:47:00,pkn,1.20
2022-11-27T23:49:00,pkn,2.40
2022-11-27T23:50:00,pkn,1.20
2022-11-27T23:52:00,pkn,1.20
2022-11-27T23:54:00,pkn,1.20
2022-11-27T23:56:00,pkn,2.40
2022-11-27T23:57:00,pkn,1.20
2022-11-27T23:59:00,pkn,1.20
